Flag for India Weather past 2 weeks in Thiruvananthapuram, Kerala, India

Now
79 °F

Partly cloudy.


Feels Like: 82 °F
Forecast: 78 / 82 °F
Wind: 6 mph from West

Location: Thiruvananthapuram

Current Time: Aug 30, 2014 at 12:17:07 AM

Latest Report: Aug 29, 2014 at 11:10 PM


Visibility: 2 mi

Pressure: 29.80 "Hg

Humidity: 84%

Dew point: 73 °F

Location of ThiruvananthapuramLocation

Historic Weather in Thiruvananthapuram — Graph

°F

Thiruvananthapuram temperature yesterday

Maximum temperature yesterday: 86 °F (at 9:10 AM)
Minimum temperature yesterday: 77 °F (at 2:40 AM)
Average temperature yesterday: 82 °F

Past Weeks' High & Low Weather Summary

 TemperatureHumidityPressure
High91 °F (Aug 19, 1:40 PM)100% (Aug 22, 7:10 PM)29.89 "Hg (Aug 22, 7:10 PM)
Low73 °F (Aug 23, 1:10 AM)63% (Aug 24, 1:40 PM)29.62 "Hg (Aug 22, 2:40 AM)
Average82 °F79%29.78 "Hg
* Reported Aug 14 10:40 PM — Aug 29 10:40 PM, Thiruvananthapuram, Weather by CustomWeather, © 2014

Note: Actual official high and low records may vary slightly from our data, if they occured in-between our weather recording intervals... More about our weather records

Advertising

Thiruvananthapuram weather history for previous 24 hours

 ConditionsComfort  
Time TempWeatherWind HumidityBarometerVisibility
10:40 PM
Aug 29
79 °FPartly cloudy.7 mph84%29.80 "Hg2 mi
10:10 PM79 °FLight rain. Partly cloudy.6 mph84%29.80 "Hg2 mi
9:40 PM79 °FPartly cloudy.5 mph84%29.77 "Hg2 mi
9:10 PM79 °FMostly cloudy.7 mph84%29.77 "Hg2 mi
8:40 PM79 °FMostly cloudy.6 mph84%29.77 "Hg2 mi
8:10 PM81 °FThunderstorms. Mostly cloudy.9 mph79%29.77 "Hg2 mi
7:10 PM81 °FDrizzle. Mostly cloudy.6 mph79%29.74 "Hg2 mi
6:10 PM82 °FMore clouds than sun.9 mph79%29.71 "Hg2 mi
5:40 PM84 °FBroken clouds.7 mph74%29.71 "Hg2 mi
5:10 PM84 °FDrizzle. Cloudy.6 mph74%29.71 "Hg2 mi
4:10 PM84 °FBroken clouds.10 mph74%29.71 "Hg2 mi
3:40 PM84 °FBroken clouds.8 mph74%29.71 "Hg2 mi
3:10 PM84 °FBroken clouds.1 mph74%29.71 "Hg2 mi
2:40 PM84 °FRain. Cloudy.6 mph74%29.71 "Hg2 mi
1:40 PM84 °FBroken clouds.5 mph74%29.71 "Hg2 mi
1:10 PM86 °FScattered clouds.7 mph70%29.74 "Hg2 mi
11:40 AM86 °FScattered clouds.7 mph70%29.77 "Hg2 mi
11:10 AM84 °FScattered clouds.5 mph74%29.77 "Hg2 mi
10:10 AM86 °FScattered clouds.6 mph70%29.77 "Hg3 mi
9:10 AM86 °FScattered clouds.7 mph70%29.77 "Hg2 mi
8:40 AM84 °FBroken clouds.7 mph74%29.77 "Hg2 mi
8:10 AM82 °FBroken clouds.8 mph79%29.77 "Hg2 mi
7:40 AM81 °FBroken clouds.6 mph84%29.77 "Hg2 mi
7:10 AM79 °FBroken clouds.7 mph84%29.74 "Hg2 mi
6:10 AM79 °FMostly cloudy.6 mph84%29.74 "Hg2 mi
4:40 AM77 °FDrizzle. Mostly cloudy.6 mph89%29.74 "Hg1 mi
3:10 AM77 °FRain. Mostly cloudy.9 mph89%29.74 "Hg1 mi
2:40 AM77 °FRain. Mostly cloudy.10 mph89%29.74 "Hg1 mi
12:40 AM79 °FPartly cloudy.3 mph84%29.74 "Hg1 mi
Weather by CustomWeather, © 2014

See weather overviewHow to use our weather pages